Find Starlink 3754

NORAD ID: 52350 Int'l Des: 2022-045 Owner: SPXS Country: US Constellation: starlink operational
LEOCIRCULAR

Current View

Loading 3D Globe...

About Starlink 3754

Starlink 3754 (NORAD 52350) is a starlink constellation satellite (v1.5) launched Apr 29, 2022 by SPXS of US. It operates in LEO, CIRCULAR orbit with a mass of 297.00 kg.

About Starlink 3754

Description loading...

Upcoming Passes

Passes for default location (London). Set your location on the main map for personalized predictions.

Altitude History

Loading altitude history...

Two-Line Element Set

1 52350U 22045V 26163.22086898 .00000234 00000-0 32816-4 0 9992
2 52350 53.1597 134.6900 0001388 88.4498 271.6653 15.08832027230057
Epoch: Jun 12, 2026 • Age: 28 hours

Current Status

Altitude 540.0 km
Velocity 7.60 km/s
Sub-Earth Point 22.98°N, 105.49°W
Launch Date Apr 29, 2022
Age 4.1 years
Type internet

Technical Details

Classification Payload
Mass 297.00 kg
Dry Mass 275.00 kg
Total Mass 297.00 kg
Length 0.20 m
Diameter 2.80 m
Span 9.00 m
Shape Box + pan
Manufacturer SPXS
Bus Type Starlink
Phase Status In Orbit
Owner/State SPXS/US

Most Searched